Hourly Data Report for October 06, 2015

All times are specified in Local Standard Time (LST). Add 1 hour to adjust for Daylight Saving Time where and when it is observed.

CORAL HARBOUR A
NUNAVUT

64°11'36.000" N
83°21'34.000" W
62.20 m
2301002
71915
YZS

Download Data

Hourly Data (October 2015)
Hourly Data Report for October 6, 2015
Temp Definition
°C
Dew Point Temp Definition
°C
Rel Hum Definition
%
Wind Dir Definition
10's deg

Wind Spd Definition
km/h
Visibility Definition
km
Stn Press Definition
kPa
Hmdx Definition


Wind Chill Definition


Weather Definition


TIME
00:00 Legend Double Dagger -1.6 -6.0 72 21 15 24.1 100.85   -6 LegendNANA
01:00 Legend Double Dagger -1.8 -6.0 73 22 9 24.1 100.79   -5 Cloudy
02:00 Legend Double Dagger -1.9 -5.9 74 19 12 24.1 100.75   -6 LegendNANA
03:00 Legend Double Dagger -2.1 -6.9 70 20 13 24.1 100.70   -7 LegendNANA
04:00 Legend Double Dagger -2.3 -7.2 69 17 6 24.1 100.64   -5 Cloudy
05:00 Legend Double Dagger -2.4 -7.3 69 36 2 24.1 100.61   -3 LegendNANA
06:00 Legend Double Dagger -2.5 -7.2 70 13 5 24.1 100.56   -4 LegendNANA
07:00 Legend Double Dagger -2.5 -7.2 70 9 12 24.1 100.52   -7 Cloudy
08:00 Legend Double Dagger -2.6 -6.6 74 12 10 24.1 100.48   -6 LegendNANA
09:00 Legend Double Dagger -2.7 -6.9 73 11 17 24.1 100.43   -8 LegendNANA
10:00 Legend Double Dagger -2.6 -7.0 72 10 17 24.1 100.38   -8 Cloudy
11:00 Legend Double Dagger -2.6 -7.0 72 11 18 24.1 100.34   -8 LegendNANA
12:00 Legend Double Dagger -2.6 -6.8 73 9 15 24.1 100.28   -8 LegendNANA
13:00 Legend Double Dagger -2.5 -6.7 73 6 16 24.1 100.22   -8 Cloudy
14:00 Legend Double Dagger -2.6 -7.0 72 8 16 24.1 100.18   -8 LegendNANA
15:00 Legend Double Dagger -2.7 -6.7 74 7 16 24.1 100.15   -8 LegendNANA
16:00 Legend Double Dagger -3.0 -6.7 76 6 15 24.1 100.11   -8 Cloudy
17:00 Legend Double Dagger -3.2 -6.7 77 4 16 24.1 100.09   -9 LegendNANA
18:00 Legend Double Dagger -3.4 -6.4 80 5 17 24.1 100.07   -9 LegendNANA
19:00 Legend Double Dagger -3.7 -6.8 79 6 25 24.1 100.02   -11 Cloudy
20:00 Legend Double Dagger -4.1 -7.2 79 5 21 24.1 99.96   -11 LegendNANA
21:00 Legend Double Dagger -4.0 -7.1 79 6 19 24.1 99.94   -10 LegendNANA
22:00 Legend Double Dagger -4.0 -7.0 80 6 20 24.1 99.91   -10 Cloudy
23:00 Legend Double Dagger -3.8 -6.8 80 4 23 24.1 99.86   -11 LegendNANA

Notes on Data Quality.

Legend

  • E = Estimated
  • M = Missing
  • NA = Not Available
  • ‡ = Partner data that is not subject to review by the National Climate Archives
Date modified: